GEFSMA_500_meanwind_042.txt.gz
Wind_Speed
16 16 16 16 16 15 14 13 12 11 9 8 7 7 7 6 5 6 6 6 7 7 7 7 7 7 8 8 9 9 9 8 8 8 9 9 10 12 13 14 14 14 14
17 18 17 18 18 17 16 16 15 13 12 11 9 9 9 9 8 7 7 7 7 8 8 9 9 10 10 10 11 11 12 11 11 11 10 11 11 12 14 15 16 16 16
17 18 18 19 20 19 19 18 18 16 15 14 12 11 12 12 11 10 9 9 9 9 9 10 10 11 12 12 13 14 14 15 15 15 15 14 14 13 14 15 16 18 18
17 17 18 19 20 21 21 20 20 19 18 17 16 15 14 14 14 13 12 11 11 11 11 12 12 13 13 14 15 16 17 18 18 19 19 19 18 17 17 16 16 18 20
19 19 19 20 21 22 22 21 22 21 21 20 19 18 17 16 15 15 15 14 14 14 14 14 15 15 15 16 16 17 18 19 20 21 22 22 22 21 20 19 18 18 20
22 22 21 21 21 22 22 22 22 23 23 23 22 21 20 19 17 17 17 17 17 16 16 16 17 17 18 18 18 19 19 20 21 22 23 23 24 24 23 22 22 21 20
24 24 23 22 22 22 22 23 23 24 25 24 24 23 23 23 22 20 19 19 19 19 19 18 19 19 19 19 19 20 21 21 22 22 23 24 25 25 25 25 24 23 23
27 25 25 24 23 22 22 23 24 24 26 26 26 26 25 25 25 23 22 21 20 21 22 21 21 21 21 21 21 22 22 23 23 23 24 25 25 26 26 26 25 25 25
30 28 27 25 24 23 23 23 24 25 26 27 28 28 27 27 27 26 25 24 22 22 23 23 23 23 23 24 23 23 23 24 24 24 25 25 25 25 26 25 25 25 25
31 30 29 28 27 25 24 23 23 25 27 28 28 29 29 29 29 28 27 26 25 24 23 23 23 24 25 26 25 24 24 24 24 25 25 26 26 26 26 25 25 25 26
31 32 31 29 29 28 26 25 24 26 28 29 30 31 31 31 30 30 29 28 27 26 24 24 23 24 25 26 26 26 25 25 25 25 25 26 26 26 26 26 26 26 26
32 32 31 31 30 28 26 25 25 25 27 30 31 32 32 32 32 31 30 30 28 28 26 26 25 24 24 25 26 27 26 26 26 26 26 26 27 27 27 27 27 27 26
34 34 33 32 30 27 26 26 27 27 28 29 30 32 34 33 32 31 31 30 29 28 27 27 26 25 24 25 26 27 27 26 26 26 26 27 27 27 27 28 28 28 28
35 34 34 33 32 31 29 28 28 27 28 30 30 31 33 32 31 31 30 29 28 27 27 27 26 26 25 25 25 26 27 26 26 26 27 27 28 28 28 29 29 29 29
35 34 34 33 31 30 29 28 29 29 29 29 31 30 29 30 30 30 28 27 27 27 27 26 26 25 25 25 25 26 26 26 26 26 27 27 28 28 29 29 30 30 30
32 32 31 30 30 29 29 29 29 29 29 28 29 27 27 28 29 27 26 26 26 26 26 25 24 24 24 25 25 25 26 26 26 26 27 28 28 28 29 29 30 30 31
26 25 25 25 25 25 25 26 28 28 27 27 27 27 28 27 26 25 26 25 24 24 25 25 24 24 24 24 25 25 25 25 25 25 26 27 27 28 28 29 29 30 30
17 16 17 18 20 19 19 21 22 22 23 22 23 23 24 24 24 24 24 23 23 23 24 24 24 24 24 24 24 24 25 24 25 25 25 26 27 28 28 28 29 29 29
9 9 10 11 12 13 14 15 15 16 17 18 19 20 21 21 22 22 23 23 23 23 23 24 24 24 23 23 23 23 23 23 24 24 25 26 26 26 26 27 28 29 29
4 5 6 7 8 9 11 12 13 14 15 16 18 19 20 20 21 22 22 23 23 23 23 23 24 24 23 23 23 23 22 22 23 23 23 24 25 26 26 27 27 28 28
5 6 7 8 9 11 13 14 15 16 17 18 19 19 20 20 21 22 22 22 22 22 23 23 23 23 22 22 23 22 22 22 22 22 22 23 25 26 26 27 28 27 27
7 9 10 11 12 14 15 16 17 19 20 20 21 21 22 22 23 23 22 22 22 22 22 22 22 22 22 21 21 21 21 21 21 21 22 23 24 25 26 27 27 27 27
9 10 11 12 14 15 17 18 20 20 21 22 22 22 22 22 23 23 22 22 22 21 21 22 22 21 21 20 20 20 20 20 20 19 19 20 21 23 23 25 26 27 27
10 11 12 13 14 16 18 19 20 21 22 22 22 23 22 22 23 23 22 22 21 21 20 20 20 20 19 19 19 19 18 18 18 18 18 18 19 20 20 22 24 25 26
11 12 12 13 14 15 16 18 20 20 21 21 22 22 23 23 22 22 21 20 20 19 19 19 18 18 17 17 17 17 17 17 17 16 16 16 16 17 18 19 21 22 23
13 13 12 13 13 14 15 16 17 18 18 18 18 19 19 20 19 19 19 19 18 17 17 16 16 16 16 15 14 14 15 15 15 15 15 15 16 16 17 17 18 20 21

GEFSMA_500_meanwind_048.txt.gz
Wind_Speed
13 13 13 13 13 13 12 11 10 10 9 8 7 6 5 5 4 4 4 5 5 6 7 7 6 6 6 5 5 5 5 6 6 6 6 7 8 9 10 11 11 12 12
15 15 15 15 15 14 14 13 13 12 12 11 10 9 9 7 7 6 6 6 6 7 7 7 7 7 7 7 7 7 7 8 8 9 9 9 10 10 11 12 13 13 14
18 17 17 17 17 16 16 15 15 14 14 14 13 12 11 11 10 9 8 8 8 8 8 8 8 8 7 8 8 8 9 9 10 11 11 12 13 13 13 14 14 15 16
21 20 20 19 18 18 18 17 17 17 17 16 16 15 14 14 13 12 11 11 10 10 9 9 9 9 9 9 9 10 10 11 12 12 13 14 15 16 16 16 17 17 17
24 23 22 21 20 20 20 20 20 19 19 19 18 18 17 16 16 15 14 13 12 12 12 12 11 11 11 11 11 11 12 12 13 14 15 16 17 18 19 19 19 19 19
26 26 25 24 24 23 23 23 22 22 21 21 20 20 19 19 18 18 17 17 16 15 15 14 14 13 13 13 13 13 14 14 15 16 16 17 18 19 20 21 22 22 22
28 27 27 27 27 26 26 25 24 23 22 22 22 22 22 21 21 20 20 20 19 18 17 16 16 16 15 15 15 15 15 15 16 17 18 18 19 20 21 22 23 24 24
30 30 29 30 30 29 28 27 27 25 24 23 23 23 23 23 24 23 23 23 22 21 20 19 18 18 18 17 16 16 16 17 17 18 19 20 20 21 22 23 24 24 25
32 31 30 30 30 31 30 30 30 29 27 26 25 25 24 24 25 25 25 26 25 24 23 22 21 20 20 19 18 18 18 18 18 19 20 20 21 22 22 23 24 25 26
34 33 30 30 30 29 30 31 31 31 29 28 28 27 27 27 26 26 27 27 28 28 26 24 23 23 22 21 21 20 20 19 20 20 20 21 22 22 23 24 25 25 26
35 34 32 31 30 29 30 28 29 30 31 31 30 30 29 29 28 28 29 29 29 29 29 27 26 25 24 24 23 22 21 21 21 21 22 22 22 23 24 25 25 26 27
35 34 33 31 30 30 30 29 28 28 29 31 31 31 31 31 30 31 30 31 31 31 30 30 29 28 27 26 25 25 24 23 23 23 23 23 23 24 25 26 26 27 27
32 32 32 31 30 30 29 29 30 29 29 30 31 32 33 33 33 33 33 33 33 32 32 31 31 30 29 28 27 27 26 25 24 24 24 24 25 25 25 26 26 27 27
30 31 32 32 32 31 30 31 30 29 30 30 30 30 31 32 32 33 34 34 35 34 33 32 32 31 31 30 29 28 28 27 26 25 25 25 25 26 26 26 26 27 27
30 31 32 33 33 32 31 32 32 32 31 31 31 31 31 33 32 32 32 33 34 35 35 34 34 33 32 31 30 29 29 28 27 26 25 25 26 26 27 27 27 27 27
28 30 31 32 31 31 31 31 31 31 33 33 32 31 32 32 32 32 32 33 33 33 34 33 33 33 32 30 29 29 28 27 26 26 25 25 25 25 26 27 27 27 27
24 25 26 27 27 28 28 29 29 29 30 30 30 30 30 30 31 32 33 33 33 33 33 32 31 31 30 29 29 28 27 26 26 26 26 26 26 26 26 27 27 27 28
18 19 20 21 22 22 23 23 24 25 25 25 26 27 28 29 31 31 30 30 30 29 30 30 30 29 28 27 26 26 25 25 25 25 26 26 26 26 26 26 27 27 27
12 13 14 15 16 17 17 17 18 19 20 21 23 24 24 25 26 26 26 26 26 26 27 27 26 26 25 24 24 23 23 24 24 25 25 26 26 25 26 26 27 27 26
7 8 9 10 10 10 12 13 15 16 17 19 20 20 21 21 22 21 22 22 22 22 23 23 23 23 22 22 22 22 23 23 24 24 24 25 26 25 25 25 26 26 26
6 7 7 8 9 9 10 11 12 13 14 15 16 16 17 18 18 18 18 18 18 19 19 19 19 19 19 20 20 21 22 22 23 23 23 24 24 24 24 24 25 25 25
8 8 7 8 9 10 10 11 11 12 12 13 14 14 15 16 16 17 18 18 18 18 18 18 18 18 18 19 19 20 20 21 21 22 22 22 23 23 24 24 24 24 25
11 10 9 9 10 10 11 11 11 12 13 14 15 15 16 16 16 17 17 17 17 17 17 17 17 17 18 18 18 19 19 19 20 20 20 21 21 22 23 23 23 22 23
14 13 12 11 10 10 11 11 12 12 13 13 14 15 15 15 14 15 15 15 15 15 15 15 15 15 15 16 16 16 17 17 17 18 18 19 20 20 21 21 21 22 22
16 15 14 13 12 11 10 10 11 12 12 12 13 13 14 14 14 13 13 13 14 14 14 14 14 14 14 14 14 15 15 15 16 16 16 17 18 18 18 19 19 20 20
19 18 17 15 14 12 10 9 9 9 10 10 10 10 11 12 12 12 12 12 13 13 13 13 13 12 12 12 12 13 13 13 14 14 14 15 15 16 16 17 17 18 18

GEFSMA_500_meanwind_054.txt.gz
Wind_Speed
19 17 16 14 13 12 11 11 11 11 11 10 9 8 8 7 7 7 7 7 7 7 7 7 7 7 7 7 7 7 6 6 6 6 7 7 7 8 8 9 9 10 10
22 21 19 17 15 14 14 14 13 13 13 13 12 11 10 10 9 9 9 9 9 8 8 8 8 8 9 9 9 8 8 9 9 8 8 8 8 9 9 10 11 11 12
25 24 22 21 18 16 16 16 15 15 15 15 14 13 13 12 12 12 11 11 11 11 10 10 10 10 10 10 10 10 10 11 11 11 11 11 11 11 11 12 12 13 13
29 27 26 24 21 20 19 18 18 17 17 17 16 16 16 15 15 15 14 14 14 13 13 13 12 12 12 12 12 12 12 12 12 12 13 13 13 13 13 14 14 14 15
32 31 30 27 24 23 22 21 20 19 19 18 18 18 18 18 18 18 17 17 16 16 16 16 15 15 15 14 14 14 15 14 14 14 15 15 15 16 16 16 16 16 17
33 32 31 29 27 26 25 24 22 22 21 20 20 20 20 21 21 21 21 20 20 19 19 19 18 18 17 17 17 17 17 17 17 17 17 17 17 17 18 18 18 18 19
33 32 32 30 28 28 26 24 24 23 24 23 23 22 22 22 23 23 23 23 23 22 22 22 21 21 20 20 20 20 20 19 19 19 19 19 19 19 19 20 20 20 20
35 33 32 29 28 27 27 26 25 25 25 25 24 23 23 24 24 25 25 25 25 25 25 25 24 24 23 23 23 23 22 22 22 22 21 21 21 21 21 22 22 22 22
33 31 30 29 28 27 26 27 28 26 25 26 26 26 26 26 26 26 27 27 27 27 27 27 27 26 26 25 25 25 25 24 24 24 23 23 23 23 23 23 23 23 23
36 34 32 31 31 29 27 27 27 26 26 26 26 27 28 28 28 28 28 29 28 29 29 29 29 28 28 28 27 27 27 26 26 26 25 25 25 24 24 24 24 24 24
37 36 34 31 31 30 28 27 25 25 26 26 26 27 27 28 29 30 30 30 30 30 30 31 31 31 31 30 30 29 28 28 28 27 26 26 26 25 25 25 25 25 25
36 35 34 32 31 31 30 29 28 27 27 27 27 28 29 29 30 31 32 33 32 31 31 31 32 32 32 32 32 31 31 30 29 28 28 27 27 27 26 26 26 26 26
33 33 32 32 32 31 30 30 29 29 29 29 29 30 30 32 32 34 35 35 35 35 34 34 34 34 34 33 32 32 32 31 31 30 29 29 28 28 28 28 28 28 27
31 31 32 31 31 31 30 30 30 28 28 29 29 30 32 33 33 34 35 37 37 36 35 35 35 34 34 34 33 33 32 33 32 31 30 30 30 29 29 29 28 28 28
28 30 31 31 31 30 31 31 31 30 30 30 31 31 32 33 33 34 34 35 36 37 37 37 36 35 35 35 34 34 34 34 33 32 32 31 31 30 30 29 29 28 28
25 27 28 29 30 31 31 32 32 32 32 32 32 33 34 35 34 35 35 35 36 36 36 36 36 36 36 36 36 36 36 36 36 35 33 32 31 30 30 30 30 29 28
21 24 25 26 27 28 29 30 31 31 31 31 32 32 33 34 34 34 34 34 35 35 35 34 34 35 35 35 35 36 36 35 35 35 34 33 31 30 29 29 29 29 28
17 19 21 23 23 25 25 26 27 28 29 30 30 31 31 32 32 33 34 33 34 34 34 34 33 34 34 34 35 35 34 33 33 32 32 31 31 29 28 28 28 28 27
11 13 15 17 18 20 22 24 25 26 27 28 28 29 29 29 30 29 30 31 31 32 31 32 31 31 31 31 31 32 31 30 30 29 30 29 28 26 25 26 26 26 26
5 7 10 12 14 16 18 20 22 22 23 24 25 26 27 28 28 27 27 27 27 28 29 28 28 28 28 29 28 28 27 26 26 26 26 24 23 24 24 25 25 25 26
2 3 6 8 10 12 13 15 17 18 19 20 21 22 23 24 25 25 26 26 26 25 26 25 25 25 24 23 22 22 23 23 22 22 23 23 22 22 23 23 24 25 25
6 5 5 6 7 9 10 12 14 15 17 18 19 20 21 21 22 22 23 24 23 23 23 22 21 21 21 19 19 19 19 19 19 20 20 21 21 21 22 23 23 24 24
9 8 7 7 7 8 9 11 12 13 15 16 17 18 19 19 19 19 20 21 21 21 20 18 17 17 17 16 16 16 17 17 17 17 18 18 19 20 20 21 22 22 23
12 11 9 9 8 7 7 7 8 9 10 11 12 13 14 15 15 15 16 17 16 17 17 16 16 15 15 15 16 16 15 15 15 15 16 17 18 19 19 20 20 21 22
15 14 12 11 9 8 7 6 6 6 7 7 8 9 10 10 11 12 12 13 13 14 14 14 14 14 14 14 14 14 14 14 14 15 15 16 16 16 17 17 18 19 19
16 16 14 13 12 9 7 6 5 5 4 5 5 6 7 8 9 10 11 11 12 12 12 13 13 13 13 13 13 12 12 13 13 13 12 13 13 14 15 15 16 16 16

GEFSMA_500_meanwind_060.txt.gz
Wind_Speed
25 23 22 21 20 18 17 16 15 14 13 12 11 10 9 9 7 7 7 6 6 6 6 7 6 6 6 6 5 5 5 4 4 4 4 5 5 5 5 5 6 6 6
28 27 26 24 23 21 20 20 18 17 16 15 14 13 12 11 10 9 9 8 8 8 8 8 8 8 8 8 7 7 7 7 6 6 6 6 6 7 7 7 8 8 8
31 31 29 28 26 25 23 23 21 20 19 17 16 15 14 14 13 12 12 11 10 10 9 9 9 9 9 9 9 9 9 9 9 8 9 9 9 9 9 10 10 10 10
32 31 31 30 30 28 27 25 24 22 22 20 18 18 17 16 16 15 14 14 13 13 12 11 11 11 11 11 11 11 11 11 11 11 11 11 11 12 12 12 12 12 13
33 32 32 33 33 31 29 28 27 25 23 22 21 20 19 19 18 18 17 16 16 15 15 14 14 14 14 14 14 14 13 13 13 13 13 13 13 14 14 14 15 15 15
37 34 32 34 34 33 32 31 30 29 26 24 23 22 21 21 21 21 20 19 18 18 17 18 17 17 16 16 16 16 16 16 16 16 16 16 17 17 17 17 17 17 18
39 38 35 34 34 33 33 33 32 30 29 28 26 24 23 23 23 23 23 22 21 20 20 20 19 19 19 19 19 19 19 18 18 18 19 19 19 20 20 19 19 19 20
39 38 37 34 34 34 32 32 32 32 31 30 28 26 26 25 25 25 24 24 24 23 23 23 22 22 22 21 21 21 21 21 21 21 21 22 22 22 22 22 22 22 22
40 38 36 35 34 32 31 30 30 30 31 31 29 28 28 27 27 26 25 25 26 26 25 25 24 24 24 24 24 24 23 23 23 24 24 24 24 24 24 24 25 25 25
40 40 37 35 34 34 32 30 29 29 30 31 29 29 29 29 28 26 26 26 26 26 27 27 26 26 25 25 26 26 26 26 26 26 26 26 26 26 26 27 27 27 27
37 37 36 35 34 34 33 31 30 29 30 29 29 29 28 28 28 28 28 27 27 28 29 29 28 28 27 26 27 28 28 28 28 28 28 28 28 28 28 28 28 28 28
34 33 32 33 32 32 32 31 29 29 29 29 29 30 29 28 28 29 28 28 28 28 28 28 29 29 29 28 28 28 29 30 30 30 30 30 30 30 30 30 30 30 30
31 31 31 31 31 31 31 31 30 30 30 30 29 29 30 30 31 31 31 31 30 30 29 29 29 30 30 29 29 29 30 31 31 31 32 32 32 32 32 32 32 31 31
28 28 28 29 30 30 30 31 32 30 29 29 30 30 31 32 32 33 32 32 31 32 31 30 30 31 31 31 30 31 31 33 33 33 33 32 32 32 33 33 33 32 32
23 25 27 28 29 30 31 31 30 30 30 30 31 32 32 31 32 32 33 33 33 33 33 33 32 32 33 33 33 33 33 34 34 33 33 33 33 32 33 34 34 34 34
19 21 24 26 27 29 30 31 30 30 30 30 32 33 32 32 32 33 33 34 34 34 34 34 34 33 33 34 34 34 33 33 33 33 33 33 34 33 33 34 35 35 35
12 15 19 22 24 25 27 28 29 30 30 31 32 32 32 31 32 33 33 33 34 34 35 35 34 33 33 33 33 34 34 34 34 33 33 33 33 34 35 35 35 35 35
9 11 14 17 21 24 25 27 28 29 29 29 29 30 30 31 32 32 32 32 32 32 33 34 34 33 32 31 31 32 33 33 32 32 32 32 33 33 34 33 34 34 34
6 8 10 12 15 18 22 25 26 27 27 27 27 28 29 30 30 30 30 30 30 30 30 31 30 31 31 31 29 29 29 29 30 30 30 31 31 32 32 31 31 30 29
7 6 7 8 11 13 16 18 21 23 24 26 26 27 27 28 29 28 28 28 29 29 28 28 28 29 29 29 28 28 27 27 27 27 28 29 29 28 27 27 27 27 27
9 7 7 7 8 10 12 14 16 18 20 22 23 25 25 26 26 27 27 27 27 28 27 26 25 24 24 25 25 24 24 23 23 22 23 22 22 22 22 23 24 24 24
11 9 8 8 8 9 10 11 13 15 16 18 20 21 22 23 24 24 24 25 24 24 25 25 24 23 21 21 21 21 21 21 21 19 19 18 18 18 18 19 19 19 20
14 12 11 10 9 8 8 9 11 13 14 15 16 18 19 20 21 21 20 20 20 20 21 21 21 21 21 19 19 19 19 19 18 17 16 16 16 16 16 16 16 17 17
16 14 13 11 10 9 7 7 8 10 11 12 14 14 16 16 16 17 17 16 17 17 17 18 19 19 19 18 17 16 16 15 14 13 14 14 13 13 13 13 14 15 16
18 16 15 13 11 10 8 7 6 6 8 9 10 10 10 11 12 12 13 14 14 14 14 14 14 14 14 15 15 14 13 12 12 12 12 12 11 11 11 12 13 13 14
19 18 17 15 13 11 9 7 7 5 4 3 4 5 6 7 7 9 10 11 11 12 12 12 12 12 12 11 11 10 10 9 9 10 10 9 9 9 10 10 11 11 12